Regional Weather Roundup
Issued by NWS Green Bay, WI

Home | Current Version | Previous Version | Text Only | Print | Product List | Glossary On
Versions: 1 2 3 4 5 6 7 8 9 10 11 12 13 14 15 16 17 18 19 20 21 22 23 24 25 26 27 28 29 30 31 32 33 34 35 36 37 38 39 40 41 42 43 44 45 46 47 48 49 50
000
ASUS43 KGRB 310759
RWRGRB

NORTH-CENTRAL AND NORTHEAST WISCONSIN REGIONAL WEATHER ROUNDUP
NATIONAL WEATHER SERVICE GREEN BAY WI
300 AM CDT SUN AUG 31 2014

WIZ005-009-010>012-018-019-310900-
NORTH CENTRAL WISCONSIN

CITY           SKY/WX    TMP DP  RH WIND       PRES   REMARKS
IRONWOOD       CLEAR     52  50  93 W3        29.91R
MANITOWISH WTR NOT AVBL
ARBOR VITAE    NOT AVBL
EAGLE RIVER    NOT AVBL
LAND O LAKES   NOT AVBL
RHINELANDER    FOG       51  51 100 CALM      29.94R VSB 3/4
PHILLIPS       NOT AVBL
ANTIGO         NOT AVBL
TOMAHAWK       NOT AVBL
MERRILL        NOT AVBL
$$

WIZ013-073-310900-
NORTHEAST WISCONSIN

CITY           SKY/WX    TMP DP  RH WIND       PRES   REMARKS
IRON MOUNTAIN  MOCLDY    56  54  93 N3        29.89S
MARINETTE      MOCLDY    57  55  94 SW5       29.89R
$$

WIZ017-030-035>037-045-310900-
CENTRAL WISCONSIN

CITY           SKY/WX    TMP DP  RH WIND       PRES   REMARKS
MEDFORD        NOT AVBL
WAUSAU         CLOUDY    61  56  83 CALM      29.92R
MOSINEE        NOT AVBL
MARSHFIELD     CLOUDY    64  60  87 NE3       29.93R
WISC RAPIDS    CLOUDY    63  61  93 CALM      29.93R
STEVENS POINT  NOT AVBL
WAUPACA        NOT AVBL
SHAWANO        NOT AVBL
CLINTONVILLE   NOT AVBL
$$

WIZ038-039-048-051-310900-
FOX VALLEY

CITY           SKY/WX    TMP DP  RH WIND       PRES   REMARKS
NWS GREEN BAY  CLOUDY    64  60  87 CALM      29.91S
APPLETON       NOT AVBL
OSHKOSH        MOCLDY    64  62  93 CALM      29.91S
FOND DU LAC    MOCLDY    64  62  93 CALM      29.91S
$$

WIZ022-050-052-310900-
EAST CENTRAL WISCONSIN

CITY           SKY/WX    TMP DP  RH WIND       PRES   REMARKS
STURGEON BAY   CLOUDY    63  57  82 CALM      29.91S
MANITOWOC      NOT AVBL
SHEBOYGAN      CLOUDY    65  63  93 NE3       29.91S
$$

LMZ563-521-522-541>543-310900-
LAKESHORE

STATION/POSITION TIME  TEMP    WIND        PRES    VSBY  WAVE
                       AIR SEA DIR/SP/G                  HT/PER
                 (UTC) (F)     (DEG/KT/KT) (MB)    (MI)  (FT/S)
SHEBOYGAN LKSHOR 0700   65 53  360/  3/  3 1012.8F
KEWAUNEE LKSHORE 0700   63      CALM  /  1 1011.9R
NORTHPORT PIER   0700   63     340/ 11/ 15 1011.5F
N MID LAKE BUOY  0700   62 65  320/ 12/ 14 1010.9F         2/ 4
S GREEN BAY BUOY 0700   64     VRB  6/ 10  1013.6R
CHAMBERS ISLAND  0700   63     320/  7/  9 1012.2S
MENOMINEE LKSHOR 0700   62     280/  3/  5 1013.0R
$$


USA.gov is the U.S. government's official web portal to all federal, state and local government web resources and services.